Forum


Ask a question

No. FLOSS Question Date
Views
Answers
1 DWSIM Thermodynamic property package selection 2020-07-31 10:07:44.769359 36 1
2 DWSIM Using temperature dependent function of K in Equilibrium Reactor 2020-07-27 15:39:22.651480 31 1
3 DWSIM I have installed and configured GNU Octave but i cant able to model pc shaft 2020-07-25 07:25:50.543967 47 2
4 DWSIM How to model Pc Shaft in Dwsim updated version. 2020-07-24 06:49:46.572296 32 2
5 DWSIM NEW COMPOUND ADD 2020-07-18 05:38:09.003950 57 1
6 DWSIM DWSIM installation Error 2020-07-13 09:42:24.351430 68 1
7 DWSIM simulation inspector 2020-07-09 09:31:46.110072 57 1
8 DWSIM Heterogeneous Catalytic Error tf=t0 2020-07-01 12:04:51.522563 87 1
9 DWSIM Regarding Optimization Tool 2020-06-13 14:05:17.037310 83 2
10 DWSIM 3-phase separator 2020-05-13 21:39:23.441675 181 2
11 DWSIM PVC Component 2020-05-12 03:20:25.884525 118 1
12 DWSIM Error in Equilibrium Reactor 2020-05-04 09:50:58.977275 135 1
13 DWSIM Polymer Component creator 2020-04-27 07:18:37.359744 146 6
14 DWSIM Syntheis/production of ammonium nitrate 2020-03-26 11:25:15.695498 196 2
15 DWSIM Flowsheet proposal form submitted but one of the compounds to be used was left out due to some error.how to correct it ? 2020-02-24 06:28:10.536173 327 1
16 DWSIM Amberlyst and sulfuric acid are not available in the list, how to proceed. 2020-02-18 12:57:36.985693 203 2
17 DWSIM Reaction manager in Mac os 2020-01-18 06:17:01.979261 237 3
18 DWSIM Error while opening "Open Python Script Editor" 2019-12-06 10:59:07.175921 264 1
19 DWSIM Automation of compound separator 2019-12-04 16:45:48.004921 227 1
20 DWSIM Using a custom compound 2019-10-10 13:51:25.781544 330 2
21 DWSIM CAPE-OPEN Unit Operations 2019-09-17 14:27:21.315684 408 6
22 DWSIM How to add a Component Splitter 2019-09-17 14:20:25.989936 394 1
23 DWSIM chemicals and thermodynamic 2019-07-28 18:10:08.125386 355 1
24 DWSIM .ERROR IN POWER CALC OF PUMP 2019-07-09 13:34:58.961977 300 1
25 DWSIM Not responding error 2019-06-29 10:33:49.500974 329 4
26 DWSIM Error while accessing compounds 2019-06-26 17:38:39.404765 330 1
27 DWSIM R.O desalination 2019-05-17 15:32:40.033347 413 1
28 DWSIM Custom modeler 2019-05-17 15:03:35.785255 389 1
29 DWSIM classic extractive distillation with 2 simple columns,  with water, ethanol and benzene 2019-04-28 20:10:56.613384 441 1
30 DWSIM Not able to download the codes for Textbook Companion Project 2019-04-24 04:06:12.674019 401 1
31 DWSIM Reaction manager 2019-03-26 16:30:04.686962 632 1
32 DWSIM equillibrium reactor 2019-03-12 18:01:08.763284 630 2
33 DWSIM Issues related to DWSIM in mac 2019-01-08 15:36:26.443308 574 2
34 DWSIM upload user define compound 2018-12-23 06:48:53.388854 503 1
35 DWSIM DWSIM Wastewater treatment process 2018-12-19 20:43:41.379014 639 1
36 DWSIM Problem with "Valve" 2018-12-05 08:35:47.995121 577 3
37 DWSIM find the enthalpy in python script 2018-12-04 04:49:54.852579 518 1
38 DWSIM Rigourous Distillation column error with image file 2018-11-21 12:52:40.637300 660 1
39 DWSIM error in a kinetic reaction 2018-11-01 11:40:17.000000 595 1
40 DWSIM error in LLE ternary graph utility 2018-10-08 15:22:17.000000 718 2
41 DWSIM doubt regarding reaction furnace and condenser 2018-09-15 14:15:00.000000 577 1
42 DWSIM Error in stichiometry 2018-08-24 09:17:41.000000 612 3
43 DWSIM Simulation of process model for n number of data points or observations 2018-08-24 08:51:16.000000 543 1
44 DWSIM Development of graphical user interface in Excel 2018-08-24 08:45:45.000000 546 1
45 DWSIM about flowsheet submission 2018-07-29 12:56:35.000000 717 1
46 DWSIM about a scrubber design 2018-07-22 15:53:53.000000 800 1
47 DWSIM Pipe unit operation 2018-07-14 14:42:47.000000 624 1
48 DWSIM About internship's forms 2018-07-05 10:00:45.000000 612 1
49 DWSIM Simulating a condensor 2018-06-24 04:42:34.000000 668 1
50 DWSIM Python Documentation For DWSIM 2018-06-21 06:57:47.000000 837 1
51 DWSIM Bubble Column Reactor Substitute 2018-06-20 05:45:42.000000 637 1
52 DWSIM Compound not available 2018-06-01 17:08:01.000000 623 1
53 DWSIM help about vinyl chloride 2018-05-28 18:01:35.000000 529 1
54 DWSIM Crude Desalter Simulator 2018-05-27 06:17:30.000000 606 1
55 DWSIM separator column in compound separater 2018-05-26 18:24:56.000000 533 1
56 DWSIM fixing the output data for a given problem 2018-05-26 17:18:25.000000 500 1
57 DWSIM Conversion reactor 2018-05-21 20:31:08.000000 624 4
58 DWSIM UNIQUAC package with default flash doesnot converge. 2018-05-17 18:37:34.000000 611 3
59 DWSIM Brine evaporation in DWSIM 2018-04-21 04:54:02.000000 613 1
60 DWSIM Regarding adding compuonds in DWSIM 2018-04-04 11:45:22.000000 1227 1
61 DWSIM About unit operations in DWSIM 2018-04-03 12:00:22.000000 677 1
62 DWSIM CATALYST is not present 2018-03-21 18:44:11.000000 698 2
63 DWSIM Dehydration Plant Simulation 2018-02-27 14:03:49.000000 558 2
64 DWSIM Dehydration Plant 2018-02-19 15:29:52.000000 651 1
65 DWSIM Proble with opening DWSIM file into software 2018-02-02 07:11:26.000000 786 1
66 DWSIM Kinetic reaction 2018-01-21 05:17:44.000000 660 1
67 DWSIM Rigorous Distillation 2018-01-12 06:01:32.000000 859 1
68 DWSIM PFR step size error 2018-01-11 10:26:39.000000 645 1
69 DWSIM Displaying reaction results 2017-12-31 08:31:37.000000 607 1
70 DWSIM can you suggest me the solution for the error I'm getting while designing methanol synthesis process ? 2017-12-22 12:22:28.000000 702 1
71 DWSIM DWSIM for membrane separation 2017-10-30 17:26:45.000000 1132 1
72 DWSIM Downloading the Tutorials 2017-10-03 13:49:40.000000 798 1
73 DWSIM Issue in DWSIM Software Installation 2017-10-02 05:45:54.000000 863 1
74 DWSIM Three phase open-source library 2017-09-13 14:22:55.000000 731 1
75 DWSIM Three phase library open-source 2017-09-13 14:22:23.000000 768 1
76 DWSIM can we use DWSIM for simulutions for a spray or rotay drier systems 2017-09-07 08:36:51.000000 883 1
77 DWSIM internship details 2017-08-14 14:13:59.000000 708 1
78 DWSIM Regarding Submission of flow sheet and its deadline. 2017-08-07 15:00:09.000000 746 1
79 DWSIM Assigning operating pressure for distillation column 2017-07-26 18:58:47.000000 862 1
80 DWSIM step size becomes too small error in plug flow reactor 2017-05-14 05:44:09.000000 918 1
81 DWSIM double clicking not opening main editing window 2017-05-12 02:47:51.000000 765 1
82 DWSIM Multi component Distillation 2017-04-25 12:11:09.000000 1157 1
83 DWSIM Unbalanced equation 2017-03-19 14:23:10.000000 814 2
84 DWSIM DWSIM components 2017-03-08 14:13:14.000000 1036 2
85 DWSIM RECYCLE STREAM 2017-01-10 04:40:53.000000 1512 1
86 DWSIM SIMULATION inquiry 2016-12-29 06:53:02.000000 853 2
87 DWSIM HEAT EXCHANGER 2016-12-04 05:57:37.000000 1123 1
88 DWSIM OPEN SOURCE APPLICATION 2016-12-03 04:08:30.000000 881 5
89 DWSIM FLASH DRUM SEPARATOR 2016-12-03 02:40:31.000000 985 1
90 DWSIM New Compound Creator Study 2016-05-26 11:56:10.000000 2185 1
91 DWSIM How to install and run DWSIM on MAC AIR? 2016-04-25 10:40:30.000000 1441 2
92 DWSIM Creating component hypothetically 2016-04-22 09:22:23.000000 3264 2
93 DWSIM Equilibrium reactor simulation 2016-02-26 15:40:26.000000 4276 2
94 DWSIM Textbook companion project 2016-02-10 13:38:57.000000 1190 2
95 DWSIM Conversion of Reaction 2016-01-04 14:31:49.000000 1564 1
96 DWSIM Unavailability of compounds in Database 2015-12-24 14:14:49.000000 1896 2
97 DWSIM TEXTBOOK COMPANION INTERNSHIP 2015-12-23 17:35:03.000000 1206 1
98 DWSIM Transient simulations and Stream wise report 2015-10-21 07:04:10.000000 1509 1